Jackson, MI

6:29 PM EDT on October 22, 2019 (GMT -0400)
Jackson County-Reynolds

Weather History for KJXN - August, 2019

Change the Weather History Date:

Tuesday, August 6, 2019

  Actual Average Record
Temperature  
Mean Temperature 74 °F 70 °F  
Max Temperature 80 °F 81 °F 93 °F (1965)
Min Temperature 67 °F 60 °F 44 °F (1948)
Degree Days  
Heating Degree Days 0 1  
Month to date heating degree days 0 2  
Since 1 June heating degree days 58 68  
Since 1 July heating degree days 0 13  
Cooling Degree Days 9 6  
Month to date cooling degree days 32 36  
Year to date cooling degree days 437 401  
Since 1 June cooling degree days 427 364  
Growing Degree Days 24 (Base 50)    
Moisture  
Dew Point 66 °F    
Average Humidity 78    
Maximum Humidity 93    
Minimum Humidity 62    
Precipitation  
Precipitation 0.10 in 0.12 in 1.89 in (1955)
Month to date precipitation 0.10 0.70  
Year to date precipitation 20.29 18.15  
Sea Level Pressure  
Sea Level Pressure 29.80 in    
Wind  
Wind Speed 4 mph (WSW)    
Max Wind Speed 17 mph    
Max Gust Speed 27 mph    
Visibility 10 miles    
Events Rain    
T = Trace of Precipitation, MM = Missing Value Source: NWS Daily Summary

Daily Weather History Graph

Daily Weather History Graph

Search for Another Location

Airport or City:

Astronomy

Aug. 06, 2019 Rise Set
Actual Time 6:35 AM EDT 8:51 PM EDT
Civil Twilight 6:04 AM EDT 9:22 PM EDT
Nautical Twilight 5:25 AM EDT 10:00 PM EDT
Astronomical Twilight 4:43 AM EDT 10:43 PM EDT
Moon 1:06 PM EDT (8/6) No Moon Set
Length of Visible Light 15h 18m
Length of Day
14h 15m
Waxing Crescent, 38% of the Moon is Illuminated
Aug 6
Waxing Crescent
Aug 7
First Quarter
Aug 15
Full
Aug 23
Last Quarter
Aug 30
New

Hourly Weather History & Observations

Time (EDT) Temp. Dew Point Humidity Pressure Visibility Wind Dir Wind Speed Gust Speed Precip Events Conditions
12:56 AM 73.9 °F 66.9 °F 79% 29.82 in 10.0 mi South 6.9 mph - N/A   Clear
1:56 AM 73.0 °F 66.9 °F 81% 29.81 in 10.0 mi SSW 8.1 mph - N/A   Clear
2:56 AM 73.0 °F 66.0 °F 79% 29.79 in 10.0 mi SSW 6.9 mph - N/A   Clear
3:56 AM 71.1 °F 64.9 °F 81% 29.79 in 10.0 mi SSW 9.2 mph - 0.00 in   Partly Cloudy
4:56 AM 69.1 °F 64.9 °F 87% 29.78 in 10.0 mi SSW 6.9 mph - N/A   Clear
5:56 AM 69.1 °F 66.0 °F 90% 29.78 in 10.0 mi SSW 5.8 mph - N/A   Clear
6:56 AM 69.1 °F 66.0 °F 90% 29.79 in 10.0 mi SSW 5.8 mph - N/A   Clear
7:56 AM 71.1 °F 66.9 °F 87% 29.79 in 10.0 mi South 5.8 mph - N/A   Clear
8:56 AM 71.1 °F 66.9 °F 87% 29.81 in 10.0 mi West 5.8 mph - N/A   Overcast
9:11 AM 71.1 °F 66.9 °F 87% 29.83 in 10.0 mi West 8.1 mph - N/A   Overcast
9:38 AM 70.0 °F 64.9 °F 84% 29.84 in 10.0 mi WNW 5.8 mph - N/A   Mostly Cloudy
9:56 AM 71.1 °F 64.0 °F 78% 29.81 in 10.0 mi NW 4.6 mph - N/A   Scattered Clouds
10:56 AM 72.0 °F 64.0 °F 76% 29.81 in 10.0 mi NNW 6.9 mph - N/A   Clear
11:56 AM 71.1 °F 66.0 °F 84% 29.80 in 10.0 mi NNW 3.5 mph - 0.01 in   Overcast
12:56 PM 71.1 °F 64.9 °F 81% 29.80 in 10.0 mi Calm Calm - 0.00 in Rain Light Rain
1:56 PM 72.0 °F 64.9 °F 78% 29.80 in 10.0 mi ENE 4.6 mph - 0.00 in   Overcast
2:44 PM 75.0 °F 66.0 °F 73% 29.81 in 10.0 mi WNW 5.8 mph - N/A   Mostly Cloudy
2:56 PM 75.0 °F 66.0 °F 73% 29.79 in 10.0 mi Calm Calm - N/A   Overcast
3:54 PM 77.0 °F 66.2 °F 69% 29.81 in 10.0 mi NW 6.9 mph - N/A   Mostly Cloudy
3:56 PM 77.0 °F 66.9 °F 71% 29.79 in 10.0 mi Variable 5.8 mph - N/A   Mostly Cloudy
4:56 PM 78.1 °F 64.9 °F 64% 29.78 in 10.0 mi Variable 4.6 mph - N/A   Mostly Cloudy
5:56 PM 79.0 °F 66.0 °F 64% 29.77 in 10.0 mi WSW 6.9 mph - N/A   Partly Cloudy
6:56 PM 79.0 °F 64.9 °F 62% 29.77 in 10.0 mi West 4.6 mph - N/A   Clear
7:56 PM 75.9 °F 66.0 °F 71% 29.77 in 10.0 mi Calm Calm - N/A   Scattered Clouds
8:46 PM 72.0 °F 68.0 °F 87% 29.79 in 1.8 mi West 8.1 mph - 0.07 in Rain Rain
8:56 PM 71.1 °F 68.0 °F 90% 29.78 in 3.0 mi West 3.5 mph - 0.08 in Rain Light Rain
9:22 PM 71.1 °F 68.0 °F 90% 29.80 in 10.0 mi Calm Calm - 0.01 in   Overcast
9:56 PM 69.1 °F 68.0 °F 96% 29.79 in 10.0 mi SW 4.6 mph - 0.01 in   Overcast
10:56 PM 69.1 °F 66.9 °F 93% 29.80 in 10.0 mi Calm Calm - N/A   Mostly Cloudy
11:56 PM 68.0 °F 66.9 °F 96% 29.81 in 10.0 mi Calm Calm - N/A   Overcast